Showing default

OPS 1264 (DMSP 4A F4), 2980

Orbit data source: Space-Track

OPS 1264 (DMSP 4A F4), 2980 is a payload satellite owned by SAMSO (US) in SSO that was launched on Wed, 11 Oct 1967 UTC via a THOR BURNER 2 launch vehicle from the Air Force Western Test Range (AFWTR). Payload-class satellites include a variety of spacecraft equipped with specific instruments for various scientific and technological missions. These include communications satellites like Starlink; space stations such as the ISS; scientific satellites like the Hubble; Earth observation satellites from companies like Planet Labs, Umbra, and HawkEye 360; GPS; miniature CubeSats for education and research; and military/defense satellites.

Loading next visibility...
Identifier
2980, 1967-096A
Orbit
SSO
Country
Flag of USUS
Related business
Manufacturer
RCA/East Windsor
Mission
Non-operational spacecraft
Bus & Motor
DMSP BLOCK 4A, Unknown motor
Mass
79 kg wet, 79 kg dry
Launch date (UTC)
1967-10-11 (58 years ago)
Launch vehicle
THOR BURNER 2
Launch site
Air Force Western Test Range (AFWTR)
Object type
Payload
Rocket body
Debris
Shape & HBR
Unknown
Radar Cross Section
Medium (>0.1 m² and <1 m²)

Expand to show TLE details & history
Last TLE update: 10 hours ago

TLE from 10 hours ago
0 OPS 1264 (DMSP 4A F4)
1 02980U 67096A   25308.08197376  .00000665  00000-0  13427-3 0  9993
2 02980  99.2128 353.4309 0094624  76.8675 284.3062 14.62665967 54212
Epoch: 2025-11-04T01:58Z
TLE epoch observation values (Epoch: 2025-11-04T01:58:02.532Z)
Latitude
-0.00006°
Longitude
-79.65375°
Altitude
671.614 km
Speed
7.53 km/s
True Right ascension
23h 33m 43s
True Declination
0° 00' 00"
Sunlit
Object was in full shadow at epoch
Visualization orbit readout
Latitude
Unknown
Longitude
Unknown
Altitude
Unknown
Speed
Unknown
Apparent Right ascension
Unknown
Apparent Declination
Unknown
Sunlit
N/A
Visualization observer readout
Local Sidereal Time
08:03:56
Azimuth
Unknown
Elevation
Unknown
Doppler factor
Unknown
Orbital elements
Apogee altitude
748.509 km
Perigee altitude
614.903 km
Semi-major axis
7,059.843 km
Eccentricity
0.00946
Inclination
99.2128°
RAAN
353.4309°
Arg. of periapsis
76.8675°
True anomaly
283.25249°
Mean anomaly
284.3062°
Eccentric anomaly
283.77965°
Mean motion
3.6589 °/min
Orbital period
98.39 mins
BSTAR
0.00013427
Loading maneuver chart data...
Computing Atmospheric mass density...
Loading historical data...
Loading historical data...
Loading historical data...
Loading historical data...
Loading historical data...
Loading historical data...
Loading historical data...
Other satellites on launch #96 in the year 1967 (1967-10-11 UTC)

Documentation

Showing up to 5 results
|